Time,TemperatureF,DewpointF,PressureIn,WindDirection,WindDirectionDegrees,WindSpeedMPH,WindSpeedGustMPH,Humidity,HourlyPrecipIn,Conditions,Clouds,dailyrainin,SoftwareType,DateUTC
2013-02-01 00:01:00,51.0,-99.9,30.16,West,268,3.0,4.0,-999,-99.99,,,-99.99,,2013-02-01 08:01:00,
2013-02-01 00:11:00,51.0,-99.9,30.16,West,260,2.0,4.0,-999,-99.99,,,-99.99,,2013-02-01 08:11:00,
2013-02-01 00:22:00,51.0,-99.9,30.16,West,270,3.0,4.0,-999,-99.99,,,-99.99,,2013-02-01 08:22:00,
2013-02-01 00:32:00,51.0,-99.9,30.17,West,280,4.0,5.0,-999,-99.99,,,-99.99,,2013-02-01 08:32:00,
2013-02-01 00:42:00,51.0,-99.9,30.17,West,263,3.0,6.0,-999,-99.99,,,-99.99,,2013-02-01 08:42:00,
2013-02-01 00:52:00,51.0,-99.9,30.17,WSW,253,3.0,5.0,-999,-99.99,,,-99.99,,2013-02-01 08:52:00,
2013-02-01 01:02:00,52.0,-99.9,30.16,West,276,4.0,5.0,-999,-99.99,,,-99.99,,2013-02-01 09:02:00,
2013-02-01 01:11:00,52.0,-99.9,30.16,West,276,3.0,4.0,-999,-99.99,,,-99.99,,2013-02-01 09:11:00,
2013-02-01 01:22:00,52.0,-99.9,30.16,WNW,285,3.0,5.0,-999,-99.99,,,-99.99,,2013-02-01 09:22:00,
2013-02-01 01:32:00,52.0,-99.9,30.16,WSW,256,3.0,5.0,-999,-99.99,,,-99.99,,2013-02-01 09:32:00,
2013-02-01 01:42:00,52.0,-99.9,30.16,WNW,303,4.0,7.0,-999,-99.99,,,-99.99,,2013-02-01 09:42:00,
2013-02-01 01:52:00,52.0,-99.9,30.16,West,260,2.0,6.0,-999,-99.99,,,-99.99,,2013-02-01 09:52:00,
2013-02-01 02:01:00,51.0,-99.9,30.16,West,279,3.0,5.0,-999,-99.99,,,-99.99,,2013-02-01 10:01:00,
2013-02-01 02:11:00,52.0,-99.9,30.16,SW,236,4.0,5.0,-999,-99.99,,,-99.99,,2013-02-01 10:11:00,
2013-02-01 02:21:00,52.0,-99.9,30.16,WNW,286,3.0,6.0,-999,-99.99,,,-99.99,,2013-02-01 10:21:00,
2013-02-01 02:32:00,52.0,-99.9,30.16,WNW,299,2.0,7.0,-999,-99.99,,,-99.99,,2013-02-01 10:32:00,
2013-02-01 02:43:00,52.0,-99.9,30.16,West,264,2.0,3.0,-999,-99.99,,,-99.99,,2013-02-01 10:43:00,
2013-02-01 02:53:00,52.0,-99.9,30.16,WSW,256,1.0,3.0,-999,-99.99,,,-99.99,,2013-02-01 10:53:00,
2013-02-01 03:02:00,51.0,-99.9,30.16,NW,304,1.0,2.0,-999,-99.99,,,-99.99,,2013-02-01 11:02:00,
2013-02-01 03:11:00,51.0,-99.9,30.16,NNW,332,3.0,4.0,-999,-99.99,,,-99.99,,2013-02-01 11:11:00,
2013-02-01 03:22:00,51.0,-99.9,30.16,NW,322,2.0,3.0,-999,-99.99,,,-99.99,,2013-02-01 11:22:00,
2013-02-01 03:32:00,51.0,-99.9,30.16,NNW,342,2.0,3.0,-999,-99.99,,,-99.99,,2013-02-01 11:32:00,
2013-02-01 03:42:00,51.0,-99.9,30.16,NNW,344,-999.0,2.0,-999,-99.99,,,-99.99,,2013-02-01 11:42:00,
2013-02-01 03:53:00,51.0,-99.9,30.16,North,4,2.0,3.0,-999,-99.99,,,-99.99,,2013-02-01 11:53:00,
2013-02-01 04:03:00,50.0,-99.9,30.16,North,349,1.0,2.0,-999,-99.99,,,-99.99,,2013-02-01 12:03:00,
2013-02-01 04:12:00,50.0,-99.9,30.16,North,349,1.0,2.0,-999,-99.99,,,-99.99,,2013-02-01 12:12:00,
2013-02-01 04:23:00,50.0,-99.9,30.16,South,181,0.0,1.0,-999,-99.99,,,-99.99,,2013-02-01 12:23:00,
2013-02-01 04:32:00,50.0,-99.9,30.16,NNW,330,1.0,1.0,-999,-99.99,,,-99.99,,2013-02-01 12:32:00,
2013-02-01 04:42:00,49.0,-99.9,30.16,NNE,16,-999.0,1.0,-999,-99.99,,,-99.99,,2013-02-01 12:42:00,
2013-02-01 04:52:00,50.0,-99.9,30.16,WNW,294,1.0,2.0,-999,-99.99,,,-99.99,,2013-02-01 12:52:00,
2013-02-01 05:02:00,50.0,-99.9,30.16,NW,315,1.0,3.0,-999,-99.99,,,-99.99,,2013-02-01 13:02:00,
2013-02-01 05:12:00,50.0,-99.9,30.16,WNW,300,1.0,4.0,-999,-99.99,,,-99.99,,2013-02-01 13:12:00,
2013-02-01 05:22:00,50.0,-99.9,30.16,West,279,0.0,2.0,-999,-99.99,,,-99.99,,2013-02-01 13:22:00,
2013-02-01 05:33:00,49.0,-99.9,30.16,East,82,-999.0,2.0,-999,-99.99,,,-99.99,,2013-02-01 13:33:00,
2013-02-01 05:43:00,49.0,-99.9,30.16,SW,220,0.0,1.0,-999,-99.99,,,-99.99,,2013-02-01 13:43:00,
2013-02-01 05:53:00,49.0,-99.9,30.16,WSW,258,1.0,2.0,-999,-99.99,,,-99.99,,2013-02-01 13:53:00,
2013-02-01 06:03:00,49.0,-99.9,30.16,West,275,1.0,1.0,-999,-99.99,,,-99.99,,2013-02-01 14:03:00,
2013-02-01 06:12:00,50.0,-99.9,30.16,West,259,0.0,2.0,-999,-99.99,,,-99.99,,2013-02-01 14:12:00,
2013-02-01 06:22:00,50.0,-99.9,30.16,NW,321,2.0,2.0,-999,-99.99,,,-99.99,,2013-02-01 14:22:00,
2013-02-01 06:33:00,49.0,-99.9,30.16,NW,322,0.0,2.0,-999,-99.99,,,-99.99,,2013-02-01 14:33:00,
2013-02-01 06:42:00,50.0,-99.9,30.16,NNW,344,1.0,2.0,-999,-99.99,,,-99.99,,2013-02-01 14:42:00,
2013-02-01 06:53:00,49.0,-99.9,30.16,NW,321,0.0,1.0,-999,-99.99,,,-99.99,,2013-02-01 14:53:00,
2013-02-01 07:03:00,49.0,-99.9,30.16,West,280,1.0,2.0,-999,-99.99,,,-99.99,,2013-02-01 15:03:00,
2013-02-01 07:12:00,49.0,-99.9,30.16,West,280,1.0,2.0,-999,-99.99,,,-99.99,,2013-02-01 15:12:00,
2013-02-01 07:22:00,49.0,-99.9,30.16,NNW,335,-999.0,0.0,-999,-99.99,,,-99.99,,2013-02-01 15:22:00,
2013-02-01 07:33:00,49.0,-99.9,30.17,ENE,62,0.0,1.0,-999,-99.99,,,-99.99,,2013-02-01 15:33:00,
2013-02-01 07:42:00,50.0,-99.9,30.17,ENE,69,0.0,1.0,-999,-99.99,,,-99.99,,2013-02-01 15:42:00,
2013-02-01 07:52:00,50.0,-99.9,30.17,ENE,68,2.0,2.0,-999,-99.99,,,-99.99,,2013-02-01 15:52:00,
2013-02-01 08:03:00,50.0,-99.9,30.17,ENE,78,4.0,5.0,-999,-99.99,,,-99.99,,2013-02-01 16:03:00,
2013-02-01 08:12:00,50.0,-99.9,30.17,ENE,78,4.0,5.0,-999,-99.99,,,-99.99,,2013-02-01 16:12:00,
2013-02-01 08:22:00,51.0,-99.9,30.18,East,94,4.0,4.0,-999,-99.99,,,-99.99,,2013-02-01 16:22:00,
2013-02-01 08:33:00,51.0,-99.9,30.18,East,94,4.0,4.0,-999,-99.99,,,-99.99,,2013-02-01 16:33:00,
2013-02-01 08:43:00,52.0,-99.9,30.18,ENE,66,2.0,2.0,-999,-99.99,,,-99.99,,2013-02-01 16:43:00,
2013-02-01 08:53:00,51.0,-99.9,30.18,North,5,2.0,3.0,-999,-99.99,,,-99.99,,2013-02-01 16:53:00,
2013-02-01 09:03:00,51.0,-99.9,30.18,North,353,2.0,3.0,-999,-99.99,,,-99.99,,2013-02-01 17:03:00,
2013-02-01 09:12:00,51.0,-99.9,30.18,NW,322,2.0,3.0,-999,-99.99,,,-99.99,,2013-02-01 17:12:00,
2013-02-01 09:22:00,52.0,-99.9,30.17,North,358,1.0,2.0,-999,-99.99,,,-99.99,,2013-02-01 17:22:00,
2013-02-01 09:32:00,52.0,-99.9,30.18,North,356,1.0,2.0,-999,-99.99,,,-99.99,,2013-02-01 17:32:00,
2013-02-01 09:42:00,52.0,-99.9,30.18,North,-999,2.0,2.0,-999,-99.99,,,-99.99,,2013-02-01 17:42:00,
2013-02-01 09:53:00,52.0,-99.9,30.18,NE,34,1.0,2.0,-999,-99.99,,,-99.99,,2013-02-01 17:53:00,
2013-02-01 10:03:00,52.0,-99.9,30.18,North,353,2.0,3.0,-999,-99.99,,,-99.99,,2013-02-01 18:03:00,
2013-02-01 10:12:00,52.0,-99.9,30.18,North,353,2.0,3.0,-999,-99.99,,,-99.99,,2013-02-01 18:12:00,
2013-02-01 10:23:00,52.0,-99.9,30.18,NE,46,3.0,3.0,-999,-99.99,,,-99.99,,2013-02-01 18:23:00,
2013-02-01 10:33:00,53.0,-99.9,30.19,ENE,61,2.0,2.0,-999,-99.99,,,-99.99,,2013-02-01 18:33:00,
2013-02-01 10:42:00,52.0,-99.9,30.18,NE,35,3.0,4.0,-999,-99.99,,,-99.99,,2013-02-01 18:42:00,
2013-02-01 10:53:00,52.0,-99.9,30.18,ENE,61,3.0,3.0,-999,-99.99,,,-99.99,,2013-02-01 18:53:00,
2013-02-01 11:03:00,52.0,-99.9,30.18,NE,52,3.0,3.0,-999,-99.99,,,-99.99,,2013-02-01 19:03:00,
2013-02-01 11:12:00,52.0,-99.9,30.18,East,79,4.0,4.0,-999,-99.99,,,-99.99,,2013-02-01 19:12:00,
2013-02-01 11:22:00,52.0,-99.9,30.18,East,94,5.0,5.0,-999,-99.99,,,-99.99,,2013-02-01 19:22:00,
2013-02-01 11:33:00,52.0,-99.9,30.18,East,101,6.0,7.0,-999,-99.99,,,-99.99,,2013-02-01 19:33:00,
2013-02-01 11:42:00,53.0,-99.9,30.17,East,100,6.0,6.0,-999,-99.99,,,-99.99,,2013-02-01 19:42:00,
2013-02-01 11:52:00,53.0,-99.9,30.17,East,82,4.0,6.0,-999,-99.99,,,-99.99,,2013-02-01 19:52:00,
2013-02-01 12:02:00,53.0,-99.9,30.17,NE,53,3.0,4.0,-999,-99.99,,,-99.99,,2013-02-01 20:02:00,
2013-02-01 12:12:00,53.0,-99.9,30.16,East,86,3.0,3.0,-999,-99.99,,,-99.99,,2013-02-01 20:12:00,
2013-02-01 12:22:00,54.0,-99.9,30.16,East,95,2.0,2.0,-999,-99.99,,,-99.99,,2013-02-01 20:22:00,
2013-02-01 12:32:00,54.0,-99.9,30.15,ENE,75,2.0,2.0,-999,-99.99,,,-99.99,,2013-02-01 20:32:00,
2013-02-01 12:42:00,54.0,-99.9,30.14,ENE,68,1.0,2.0,-999,-99.99,,,-99.99,,2013-02-01 20:42:00,
2013-02-01 12:52:00,55.0,-99.9,30.14,East,82,2.0,2.0,-999,-99.99,,,-99.99,,2013-02-01 20:52:00,
2013-02-01 13:02:00,54.0,-99.9,30.13,North,1,0.0,1.0,-999,-99.99,,,-99.99,,2013-02-01 21:02:00,
2013-02-01 13:12:00,56.0,-99.9,30.12,WNW,303,2.0,2.0,-999,-99.99,,,-99.99,,2013-02-01 21:12:00,
2013-02-01 13:22:00,57.0,-99.9,30.12,NW,307,3.0,4.0,-999,-99.99,,,-99.99,,2013-02-01 21:22:00,
2013-02-01 13:32:00,58.0,-99.9,30.12,WNW,301,4.0,5.0,-999,-99.99,,,-99.99,,2013-02-01 21:32:00,
2013-02-01 13:42:00,59.0,-99.9,30.12,NW,310,4.0,5.0,-999,-99.99,,,-99.99,,2013-02-01 21:42:00,
2013-02-01 13:53:00,58.0,-99.9,30.11,NW,306,6.0,7.0,-999,-99.99,,,-99.99,,2013-02-01 21:53:00,
2013-02-01 14:03:00,58.0,-99.9,30.11,NW,306,6.0,7.0,-999,-99.99,,,-99.99,,2013-02-01 22:03:00,
2013-02-01 14:11:00,60.0,-99.9,30.11,WNW,302,6.0,8.0,-999,-99.99,,,-99.99,,2013-02-01 22:11:00,
2013-02-01 14:22:00,62.0,-99.9,30.11,WNW,297,3.0,7.0,-999,-99.99,,,-99.99,,2013-02-01 22:22:00,
2013-02-01 14:32:00,62.0,-99.9,30.10,WNW,303,4.0,7.0,-999,-99.99,,,-99.99,,2013-02-01 22:32:00,
2013-02-01 14:42:00,62.0,-99.9,30.10,NW,304,5.0,8.0,-999,-99.99,,,-99.99,,2013-02-01 22:42:00,
2013-02-01 14:52:00,62.0,-99.9,30.10,WNW,284,6.0,8.0,-999,-99.99,,,-99.99,,2013-02-01 22:52:00,
2013-02-01 15:02:00,62.0,-99.9,30.10,WNW,293,5.0,8.0,-999,-99.99,,,-99.99,,2013-02-01 23:02:00,
2013-02-01 15:11:00,62.0,-99.9,30.10,WNW,303,7.0,9.0,-999,-99.99,,,-99.99,,2013-02-01 23:11:00,
2013-02-01 15:22:00,63.0,-99.9,30.10,WNW,283,4.0,7.0,-999,-99.99,,,-99.99,,2013-02-01 23:22:00,
2013-02-01 15:32:00,63.0,-99.9,30.10,West,280,4.0,7.0,-999,-99.99,,,-99.99,,2013-02-01 23:32:00,
2013-02-01 15:42:00,63.0,-99.9,30.10,WNW,292,4.0,6.0,-999,-99.99,,,-99.99,,2013-02-01 23:42:00,
2013-02-01 15:52:00,63.0,-99.9,30.10,West,278,5.0,8.0,-999,-99.99,,,-99.99,,2013-02-01 23:52:00,
2013-02-01 16:02:00,63.0,-99.9,30.10,West,273,5.0,8.0,-999,-99.99,,,-99.99,,2013-02-02 00:02:00,
2013-02-01 16:11:00,64.0,-99.9,30.10,West,279,6.0,8.0,-999,-99.99,,,-99.99,,2013-02-02 00:11:00,
2013-02-01 16:22:00,63.0,-99.9,30.09,West,274,6.0,8.0,-999,-99.99,,,-99.99,,2013-02-02 00:22:00,
2013-02-01 16:32:00,63.0,-99.9,30.09,West,274,6.0,8.0,-999,-99.99,,,-99.99,,2013-02-02 00:32:00,
2013-02-01 16:42:00,62.0,-99.9,30.09,West,272,5.0,6.0,-999,-99.99,,,-99.99,,2013-02-02 00:42:00,
2013-02-01 16:52:00,62.0,-99.9,30.10,West,280,4.0,6.0,-999,-99.99,,,-99.99,,2013-02-02 00:52:00,
2013-02-01 17:03:00,62.0,-99.9,30.10,West,275,4.0,6.0,-999,-99.99,,,-99.99,,2013-02-02 01:03:00,
2013-02-01 17:11:00,63.0,-99.9,30.10,WSW,258,4.0,6.0,-999,-99.99,,,-99.99,,2013-02-02 01:11:00,
2013-02-01 17:22:00,63.0,-99.9,30.10,WSW,258,4.0,6.0,-999,-99.99,,,-99.99,,2013-02-02 01:22:00,
2013-02-01 17:32:00,62.0,-99.9,30.10,West,267,3.0,6.0,-999,-99.99,,,-99.99,,2013-02-02 01:32:00,
2013-02-01 17:42:00,62.0,-99.9,30.11,WSW,254,5.0,7.0,-999,-99.99,,,-99.99,,2013-02-02 01:42:00,
2013-02-01 17:52:00,62.0,-99.9,30.11,West,261,5.0,7.0,-999,-99.99,,,-99.99,,2013-02-02 01:52:00,
2013-02-01 18:01:00,62.0,-99.9,30.12,WSW,258,5.0,6.0,-999,-99.99,,,-99.99,,2013-02-02 02:01:00,
2013-02-01 18:11:00,62.0,-99.9,30.13,WSW,256,6.0,7.0,-999,-99.99,,,-99.99,,2013-02-02 02:11:00,
2013-02-01 18:22:00,62.0,-99.9,30.13,WSW,256,6.0,7.0,-999,-99.99,,,-99.99,,2013-02-02 02:22:00,
2013-02-01 18:32:00,62.0,-99.9,30.13,WSW,256,6.0,7.0,-999,-99.99,,,-99.99,,2013-02-02 02:32:00,
2013-02-01 18:42:00,61.0,-99.9,30.14,WSW,245,6.0,8.0,-999,-99.99,,,-99.99,,2013-02-02 02:42:00,
2013-02-01 18:52:00,61.0,-99.9,30.14,WSW,252,6.0,8.0,-999,-99.99,,,-99.99,,2013-02-02 02:52:00,
2013-02-01 19:02:00,60.0,-99.9,30.14,WSW,250,6.0,8.0,-999,-99.99,,,-99.99,,2013-02-02 03:02:00,
2013-02-01 19:11:00,59.0,-99.9,30.14,West,264,4.0,7.0,-999,-99.99,,,-99.99,,2013-02-02 03:11:00,
2013-02-01 19:22:00,59.0,-99.9,30.15,WSW,247,5.0,9.0,-999,-99.99,,,-99.99,,2013-02-02 03:22:00,
2013-02-01 19:32:00,58.0,-99.9,30.15,WSW,248,4.0,6.0,-999,-99.99,,,-99.99,,2013-02-02 03:32:00,
2013-02-01 19:42:00,58.0,-99.9,30.15,West,262,4.0,7.0,-999,-99.99,,,-99.99,,2013-02-02 03:42:00,
2013-02-01 19:52:00,57.0,-99.9,30.15,West,264,5.0,8.0,-999,-99.99,,,-99.99,,2013-02-02 03:52:00,
2013-02-01 20:02:00,55.0,-99.9,30.15,NW,314,4.0,6.0,-999,-99.99,,,-99.99,,2013-02-02 04:02:00,
2013-02-01 20:11:00,55.0,-99.9,30.15,WNW,292,3.0,5.0,-999,-99.99,,,-99.99,,2013-02-02 04:11:00,
2013-02-01 20:22:00,56.0,-99.9,30.15,WSW,251,4.0,5.0,-999,-99.99,,,-99.99,,2013-02-02 04:22:00,
2013-02-01 20:33:00,57.0,-99.9,30.15,WSW,241,4.0,6.0,-999,-99.99,,,-99.99,,2013-02-02 04:33:00,
2013-02-01 20:42:00,57.0,-99.9,30.15,WSW,248,3.0,5.0,-999,-99.99,,,-99.99,,2013-02-02 04:42:00,
2013-02-01 20:52:00,57.0,-99.9,30.15,West,268,2.0,4.0,-999,-99.99,,,-99.99,,2013-02-02 04:52:00,
2013-02-01 21:03:00,56.0,-99.9,30.16,West,274,2.0,2.0,-999,-99.99,,,-99.99,,2013-02-02 05:03:00,
2013-02-01 21:12:00,56.0,-99.9,30.16,West,274,2.0,2.0,-999,-99.99,,,-99.99,,2013-02-02 05:12:00,
2013-02-01 21:22:00,55.0,-99.9,30.16,SSW,192,-999.0,1.0,-999,-99.99,,,-99.99,,2013-02-02 05:22:00,
2013-02-01 21:33:00,55.0,-99.9,30.17,SE,139,-999.0,1.0,-999,-99.99,,,-99.99,,2013-02-02 05:33:00,
2013-02-01 21:42:00,55.0,-99.9,30.17,NNE,18,1.0,1.0,-999,-99.99,,,-99.99,,2013-02-02 05:42:00,
2013-02-01 21:52:00,54.0,-99.9,30.17,SSE,158,2.0,2.0,-999,-99.99,,,-99.99,,2013-02-02 05:52:00,
2013-02-01 22:02:00,54.0,-99.9,30.17,West,262,1.0,2.0,-999,-99.99,,,-99.99,,2013-02-02 06:02:00,
2013-02-01 22:12:00,54.0,-99.9,30.17,West,262,1.0,2.0,-999,-99.99,,,-99.99,,2013-02-02 06:12:00,
2013-02-01 22:22:00,54.0,-99.9,30.17,WSW,252,6.0,8.0,-999,-99.99,,,-99.99,,2013-02-02 06:22:00,
2013-02-01 22:32:00,54.0,-99.9,30.17,WSW,249,5.0,8.0,-999,-99.99,,,-99.99,,2013-02-02 06:32:00,
2013-02-01 22:42:00,53.0,-99.9,30.17,WSW,247,4.0,7.0,-999,-99.99,,,-99.99,,2013-02-02 06:42:00,
2013-02-01 22:52:00,54.0,-99.9,30.18,SW,228,2.0,5.0,-999,-99.99,,,-99.99,,2013-02-02 06:52:00,
2013-02-01 23:02:00,54.0,-99.9,30.18,SW,228,2.0,5.0,-999,-99.99,,,-99.99,,2013-02-02 07:02:00,
2013-02-01 23:12:00,53.0,-99.9,30.19,WSW,246,3.0,4.0,-999,-99.99,,,-99.99,,2013-02-02 07:12:00,
2013-02-01 23:21:00,53.0,-99.9,30.19,WSW,255,2.0,2.0,-999,-99.99,,,-99.99,,2013-02-02 07:21:00,
2013-02-01 23:32:00,53.0,-99.9,30.19,West,259,2.0,3.0,-999,-99.99,,,-99.99,,2013-02-02 07:32:00,
2013-02-01 23:42:00,52.0,-99.9,30.19,WSW,249,4.0,5.0,-999,-99.99,,,-99.99,,2013-02-02 07:42:00,
2013-02-01 23:52:00,51.0,-99.9,30.19,WSW,248,5.0,8.0,-999,-99.99,,,-99.99,,2013-02-02 07:52:00,